Historyczne dane pomiarowe

Dodano dane terminowe – wersja testowa.

Dane z okresu 1951-2019

Wersja bazy: 1.34 [2019-03-16, lista zmian], aktualizacja planowana na 2019-04-15

Dane meteo z obszaru Polski uzyskane na podstawie danych udostępnionych przez Instytut Meteorologii i Gospodarki Wodnej – Państwowy Instytut Badawczy.

 

Wybierz Datę:    

       

TemperaturaWilgotnośćZachmurzenieWiatrCiśnienieWidzialnośćZjawiska
 Data    tng td wb rh cc ccl cl cm ch dir g1 g2 mslp ppp      
1973-04-25 00:00:00 -3.4--- -3.5 -3.399wxwx8wx--- 829.9 0.0---wxw1
1973-04-25 01:00:00 -3.4------wxwx9wx--- 829.6----wxw1
1973-04-25 02:00:00 -3.7------wxwx9wx--- 829.3----wxw1
1973-04-25 03:00:00 -4.4--- -4.6 -4.398wxwx7wx--- 829.3----wxw1
1973-04-25 04:00:00 -4.7------wxwx8wx--- 829.2----wxw1
1973-04-25 05:00:00 -4.6------wxwx6wx--- 829.2----wxw1
1973-04-25 06:00:00 -5.2--- -5.2 -5.0100wxwx8wx--- 829.4 0.0---wxw1
1973-04-25 07:00:00 -5.2------wxwx5wx--- 829.5----wxw1
1973-04-25 08:00:00 -4.8------wxwx6wx--- 829.7----wxw1
1973-04-25 09:00:00 -5.4--- -5.7 -5.398wxwx8wx--- 829.7----wxw1
1973-04-25 10:00:00 -5.2------wxwx6wx--- 829.9----wxw1
1973-04-25 11:00:00 -4.8------wxwx5wx--- 830.4----wxw1
1973-04-25 12:00:00 -4.4--- -5.0 -4.496wxwx5wx--- 830.7 0.1---wxw1
1973-04-25 13:00:00 -4.2------wxwx5wx--- 830.5----wxw1
1973-04-25 14:00:00 -4.0------wxwx6wx--- 830.3----wxw1
1973-04-25 15:00:00 -4.8--- -5.4 -4.895wxwx5wx--- 830.7----wxw1
1973-04-25 16:00:00 -4.8------wxwx5wx--- 830.9----wxw1
1973-04-25 17:00:00 -4.8------wxwx5wx--- 831.3----wxw1
1973-04-25 18:00:00 -5.0--- -5.6 -5.095wxwx4wx--- 831.7 0.0---wxw1
1973-04-25 19:00:00 -6.0------wxwx4wx--- 832.2----wxw1
1973-04-25 20:00:00 -6.6------wxwxwx6wx--- 832.1----wxw1
1973-04-25 21:00:00 -6.2--- -6.6 -6.197wxwxwx5wx--- 832.2----wxw1
1973-04-25 22:00:00 -5.8------wxwxwx6wx--- 832.4----wx
1973-04-25 23:00:00 -5.6------wxwx6wx--- 832.2----wxw1

 

Źródłem pochodzenia danych jest Instytut Meteorologii i Gospodarki Wodnej – Państwowy Instytut Badawczy. Dane Instytutu Meteorologii i Gospodarki Wodnej – Państwowego Instytutu Badawczego zostały przetworzone.

Dane źródłowe można odnaleźć na stronie https://dane.imgw.pl